{"data":{"norad_id":53220,"intl_designator":"2022-084AH","name":"STARLINK-4363","alt_names":[],"object_type":"PAYLOAD","status":"ACTIVE","operator":null,"country":"US","launch_date":"2022-07-22","launch_site_code":"AFWTR","launch_vehicle":null,"mission":null,"orbit_class":"UNKNOWN","rcs_meters":null,"size_class":null,"mass_kg":null,"dimensions":null,"purposes":["comms"],"wikipedia_slug":null,"has_3d_model":false,"image_url":null,"decayed_at":null,"tle_current":{"epoch":"2026-05-25T03:46:46.742016Z","epoch_age_seconds":72034,"freshness":"FRESH","line1":"1 53220U 22084AH  26145.15748544 -.00034662  00000+0 -23985-2 0  9995","line2":"2 53220  97.4455 205.0745 0002749 139.5976 220.5456 15.05824324211331","mean_motion":15.05824324,"eccentricity":0.0002749,"inclination_deg":97.4455,"raan_deg":205.0745,"arg_perigee_deg":139.5976,"mean_anomaly_deg":220.5456,"bstar":-0.0023985,"rev_number":21133,"period_min":95.628685036436,"perigee_km":547.07222054145,"apogee_km":550.88074753497,"semimajor_km":6927.1134840382,"source":"CELESTRAK","updated_at":"2026-05-25T13:38:17.355957Z"}}}